STARLINK-31884, 59676

Orbit data source: Space-Track

STARLINK-31884, 59676 is a payload satellite owned by SpaceX/Seattle (US) in LEO that was launched on Mon, 06 May 2024 UTC via an FALCON 9 launch vehicle from the Air Force Eastern Test Range (AFETR). Payload-class satellites include a variety of spacecraft equipped with specific instruments for various scientific and technological missions. These include communications satellites like Starlink; space stations such as the ISS; scientific satellites like the Hubble; Earth observation satellites from companies like Planet Labs, Umbra, and HawkEye 360; GPS; miniature CubeSats for education and research; and military/defense satellites.

Loading next visibility...
Identifier
59676, 2024-084Y
Orbit
LEO
Country
Flag of USUS
Related business
Manufacturer
SpaceX/Seattle
Mission
Operational Commercial Communications
Bus & Motor
STARLINK V2M, Unknown motor
Mass
730 kg wet, ~700 kg dry
Launch date (UTC)
2024-05-06 (1 year ago)
Launch vehicle
FALCON 9
Launch site
Air Force Eastern Test Range (AFETR)
Object type
Payload
Rocket body
Debris
Shape & HBR
Box + 2 Pan, 17.7 m
Radar Cross Section
33.884 m², Large (>1 m²)

Expand to show TLE details & history
Last TLE update: 15 hours ago

TLE from 15 hours ago
0 STARLINK-31884
1 59676U 24084Y   25287.87857755 -.00002051  00000-0 -65048-4 0  9994
2 59676  42.9986 145.2399 0001175 265.0144  95.0574 15.27574841 82073
Epoch: 2025-10-14T21:05Z
TLE epoch observation values (Epoch: 2025-10-14T21:05:09.100Z)
Latitude
0.00002°
Longitude
165.29132°
Altitude
482.911 km
Speed
7.626 km/s
True Right ascension
09h 40m 57s
True Declination
0° 00' 00"
Sunlit
Object was in daylight at epoch
Visualization orbit readout
Latitude
Unknown
Longitude
Unknown
Altitude
Unknown
Speed
Unknown
Apparent Right ascension
Unknown
Apparent Declination
Unknown
Sunlit
N/A
Visualization observer readout
Local Sidereal Time
06:44:07
Azimuth
Unknown
Elevation
Unknown
Doppler factor
Unknown
Orbital elements
Apogee altitude
485.816 km
Perigee altitude
484.204 km
Semi-major axis
6,863.147 km
Eccentricity
0.00012
Inclination
42.9986°
RAAN
145.2399°
Arg. of periapsis
265.0144°
True anomaly
95.07081°
Mean anomaly
95.0574°
Eccentric anomaly
95.06411°
Mean motion
3.81732 °/min
Orbital period
94.31 mins
BSTAR
-0.000065048
Loading maneuver chart data...
Computing Atmospheric mass density...
Loading historical data...
Loading historical data...
Loading historical data...
Loading historical data...
Loading historical data...
Loading historical data...
Loading historical data...

Documentation

Showing up to 5 results
|